Regional Weather Roundup
Issued by NWS Grand Forks, ND

Home | Current Version | Previous Version | Text Only | Print | Product List | Glossary Off
Versions: 1 2 3 4 5 6 7 8 9 10 11 12 13 14 15 16 17 18 19 20 21 22 23 24 25 26 27 28 29 30 31 32 33 34 35 36 37 38 39 40 41 42 43 44 45 46 47 48 49 50

000
ASUS43 KFGF 292131
RWRFGF
PRAIRIE TO PINES  WEATHER ROUNDUP
NATIONAL WEATHER SERVICE EASTERN NORTH DAKOTA/GRAND FORKS ND
400 PM CDT THU SEP 29 2016

 **SATELLITE DATA USED TO AUGMENT SKY COVER AT AUTOMATED STATIONS**
 *****  WEATHER ACROSS EASTERN NORTH DAKOTA  *****

CITY           SKY/WX    TMP DP  RH WIND       PRES   REMARKS
GRAND FORKS    MOSUNNY   67  46  47 S9        30.40F
GRAND FRKS AFB SUNNY     66  47  50 S10       30.39F
GRAND FRKS NWS   N/A     64 N/A N/A SE10        N/A
DEVILS LAKE    SUNNY     65  48  54 S13       30.36F
FARGO          SUNNY     67  44  43 S7        30.40F
WAHPETON ARPT  CLEAR     64  41  42 SE9       30.40F
$$

 ***** WEATHER ACROSS CENTRAL AND WESTERN NORTH DAKOTA  *****

CITY           SKY/WX    TMP DP  RH WIND       PRES   REMARKS
BISMARCK       SUNNY     71  46  40 SE20G26   30.28F
MINOT          SUNNY     71  45  39 SE18G24   30.25F
JAMESTOWN      SUNNY     66  48  52 S13       30.36F
MINOT AFB      SUNNY     71  46  41 SE20      30.24F
GARRISON         N/A     70  46  42 SE15G24   30.25F
WILLISTON      SUNNY     76  48  37 SE15      30.15F
DICKINSON      SUNNY     73  41  31 SE25      30.18
HETTINGER      SUNNY     77  43  29 SE18G25   30.21F
$$

 *****  OTHER AIRPORT OBSERVATIONS IN OUR AREA  *****

CITY           SKY/WX    TMP DP  RH WIND       PRES   REMARKS
WALHALLA       FAIR      64  59  82 SE13G18   30.38F
GRAFTON AIRPOR FAIR      64  48  55 SE12      30.41F
VALLEY CITY AR FAIR      64  46  52 S8G17     30.39F
CANDO          FAIR      66  48  52 SE16      30.36F
CAVALIER APRT  FAIR      64  48  55 S9G16     30.39F
GWINNER        FAIR      66  45  45 S12       30.39F
SHEYENNE NWR     N/A     67  46  45 SE9       29.95S
ROLLA          FAIR      64  45  48 S14G22    30.34F
 ***** THE ABOVE OBSERVATIONS ARE NON NWS ARE NOT QUALITY
       CONTROLLED AND MAY MIS-REPORT RAIN FOR SNOW...
$$

  *****  WEATHER ACROSS NORTHERN MINNESOTA  *****

CITY           SKY/WX    TMP DP  RH WIND       PRES   REMARKS
FLAG ISLAND    MOSUNNY   59  46  63 SE8       30.46F
WARROAD        CLOUDY    61  52  72 NE6       30.45F
ROSEAU         MOSUNNY   64  50  59 S8        30.44F HAZE
HALLOCK        SUNNY     64  48  55 S12       30.40F
THF RVR FALLS  MOSUNNY   63  46  54 S8        30.43F
BAUDETTE       MOSUNNY   60  46  59 SE9       30.47F
WASKISH        CLOUDY    59  46  63 S5        30.47S
CROOKSTON      MOSUNNY   64  46  52 S10       30.41F
STEPHEN NDAWN    N/A     64  48  55 S6          N/A
GREENBUSH NDAW   N/A     64  46  52 S9          N/A
$$
  *****  WEATHER ACROSS CENTRAL AND WEST MINNESOTA  *****

CITY           SKY/WX    TMP DP  RH WIND       PRES   REMARKS
FOSSTON        MOSUNNY   66  46  48 SE7       30.44F
BEMIDJI        CLOUDY    58  45  61 SE6       30.46F
PARK RAPIDS    PTSUNNY   61  42  49 E9        30.45F
ELBOW LAKE     FAIR      63  47  56 SE6       30.43F
WADENA         CLOUDY    59  45  58 E6        30.44F
DETROIT LAKES  SUNNY     61  45  55 SE7       30.44F
MOORHEAD       SUNNY     64  45  48 SE7G16    30.41F
FERGUS FALLS   MOSUNNY   63  45  51 SE6       30.43F
MORRIS MN      SUNNY     66  46  48 E9G16     30.40F
STAPLES        CLOUDY    59  45  58 E5        30.45F
$$
  *****  WEATHER ELSEWHERE ACROSS MINNESOTA  *****

CITY           SKY/WX    TMP DP  RH WIND       PRES   REMARKS
DULUTH         MOSUNNY   60  47  61 NE7       30.47F
INTRNTL FALLS  CLOUDY    58  47  66 SE6       30.49F
ELY            CLOUDY    55  45  67 CALM      30.49F
CLOQUET        SUNNY     59  46  63 E10       30.47F
WHEATON        SUNNY     68  48  49 SE8       30.42
BRAINERD       CLOUDY    60  47  61 NE5       30.46F
HIBBING        CLOUDY    58  45  62 CALM      30.48F
ALEXANDRIA     SUNNY     63  46  54 E9        30.45F
SAINT CLOUD    MOSUNNY   64  49  57 E7        30.43F
MINNEAPOLIS    MOSUNNY   67  50  54 VRB7      30.41F
$$

  *****  WEATHER ACROSS SOUTH DAKOTA  *****

CITY           SKY/WX    TMP DP  RH WIND       PRES   REMARKS
SIOUX FALLS    MOSUNNY   68  49  50 VRB3      30.38F
BROOKINGS      SUNNY     65  47  52 SE5       30.39F HAZE
WATERTOWN      SUNNY     65  47  52 SE10      30.39F
HURON          SUNNY     69  47  45 S9        30.35F
SISSETON         N/A     68  45  43 SE9       30.39F
ABERDEEN       SUNNY     70  45  40 S10       30.36F
MITCHELL       SUNNY     70  46  42 S8        30.37F
PIERRE         SUNNY     73  41  31 SE15G24   30.27F
MOBRIDGE       SUNNY     73  40  30 SE20G25   30.27F
RAPID CITY     SUNNY     81  44  27 S22G29    30.20F
$$

  *****  SOME WEATHER IN NEARBY STATES *****

CITY           SKY/WX    TMP DP  RH WIND       PRES   REMARKS
GLASGOW MT     SUNNY     80  45  28 S16G25    30.04F
GREAT FALLS MT SUNNY     75  50  41 NE9       30.03F
CHEYENNE WY    CLOUDY    78  34  20 SE12      30.32F
SCOTTSBLUFF NE SUNNY     82  44  26 SE17G23   30.23F
OMAHA NE       MOSUNNY   72  48  42 N5        30.35F
DES MOINES IA  MOSUNNY   74  45  35 NE8       30.30F
DAVENPORT IA   MOSUNNY   73  51  46 NE20      30.23S
CHICAGO IL     CLOUDY    64  59  83 NE15      30.19R
EAU CLAIRE WI  SUNNY     70  50  49 N6        30.38F
LA CROSSE WI   SUNNY     74  53  48 N9        30.34F
$$

  *****  SOME NATIONAL WEATHER *****

CITY           SKY/WX    TMP DP  RH WIND       PRES   REMARKS
LA GUARDIA NY  CLOUDY    66  52  60 E17       30.34S
RALEIGH NC     CLOUDY    76  68  76 SE6       30.00S
ATLANTA GA     MOSUNNY   77  43  29 NW12      29.98F
NEW ORLEANS LA MOSUNNY   87  66  49 NW10      30.03F
OKLAHOMA CITY  MOSUNNY   73  48  41 N12       30.29F
ALBUQUERQUE NM PTSUNNY   80  43  26 W10       30.33F
SALT LAKE CITY PTSUNNY   71  53  52 N22G30    30.19S
LOS ANGELES CA FAIR      77  63  61 W16       30.01F
BOISE ID       FAIR      88  34  14 VRB5      29.99F
SEATTLE WA     PTSUNNY   64  44  48 N8        30.08F
$$

*** WEATHER ACROSS MANITOBA...SASKATCHEWAN AND ONTARIO ***
                ***ONTARIO***

CITY           SKY/WX    TMP DP  RH WIND       PRES   REMARKS
GERALDTON      PTSUNNY   61  50  67 S7        30.50F
THUNDER BAY    MOSUNNY   64  50  59 SE6       30.49F
SIOUX LOOKOUT  CLOUDY    55  45  67 VRB2      30.52S
TORONTO        LGT RAIN  59  55  88 E13G22    30.31S FOG
BIG TROUT LK   SUNNY     61  46  59 SE3       30.45F
PICKLE LAKE    PTSUNNY   55  45  67 SW7       30.49F
DRYDEN         CLOUDY    55  45  67 S3        30.50F
KENORA         PTSUNNY   57  45  62 SE9       30.48F
$$
                *** MANITOBA***

CITY           SKY/WX    TMP DP  RH WIND       PRES   REMARKS
BRANDON        MOSUNNY   68  48  49 SE15      30.31F
DAUPHIN        SUNNY     72  48  43 S14       30.26F
ISLAND LAKE    PTSUNNY   55  50  82 S5        30.42S
PILOT MOUND      N/A     64  46  52 SE16        N/A
THE PAS        PTSUNNY   57  50  77 E13       30.25F
THOMPSON       PTSUNNY   55  43  62 S3        30.34S
WINNIPEG       MOSUNNY   64  48  55 SE16      30.40F
LYNN LAKE      SUNNY     63  36  36 SW9       30.26F
CHURCHILL      PTSUNNY   57  41  54 VRB2      30.26F
GILLAM         CLOUDY    59  34  38 SW8       30.36F
$$
                ***SASKATCHEWAN***

CITY           SKY/WX    TMP DP  RH WIND       PRES   REMARKS
ESTEVAN        MOSUNNY   73  46  38 SE20G25   30.18F
KINDERSLEY     PTSUNNY   55  48  76 NE7       30.12F
LLOYDMINSTER   PTSUNNY   63  45  51 E9        30.15F
PRINCE ALBERT  PTSUNNY   57  46  67 NE9       30.17F
REGINA         MOSUNNY   79  41  25 SE21G32   30.09F
YORKTON        SUNNY     70  48  46 SE16G28   30.18F
N. BATTLEFORD  SUNNY     64  43  45 E12G17    30.15F
LA RONGE       MOSUNNY   61  46  59 NE9       30.22F
SASKATOON      PTSUNNY   63  50  63 NE12G17   30.13F
SWIFT CURRENT  SUNNY     73  52  46 SE10      30.05F
$$
NOTE: THESE ARE AUTOMATED STATIONS WITH LIMITED QUALITY CONTROL
      "FAIR" INDICATES FEW OR NO CLOUDS BELOW 12,000 FEET WITH NO
      SIGNIFICANT WEATHER AND/OR OBSTRUCTIONS TO VISIBILITY.
      SKY/WX - SKY CONDITION AND SIGNIFICANT WEATHER.
      TMP - AIR TEMPERATURE.    DP   - DEWPOINT TEMPERATURE.
      RH  - RELATIVE HUMIDITY.  PRES - PRESSURE.
      HX  - HEAT INDEX.         WCI  - WIND CHILL INDEX.
$




USA.gov is the U.S. government's official web portal to all federal, state and local government web resources and services.